Location: Grundy Observatory
(40.0525°N, 76.3328°W)
Time: 16:30:16
(UTC-04:00)

Daily predictions for brighter satellites

Satellite Brightness Start Highest point End
(mag) Time Altitude Azimuth Time Altitude Azimuth Time Altitude Azimuth
ATLAS CENTAUR R/B 4.0 20:39:39 10° SSW 20:45:08 55° ESE 21:00:53 10° NE
SL-16 R/B 3.1 20:42:43 10° N 20:47:55 35° ENE 20:53:04 10° SE
ATLAS 3B R/B 3.1 20:42:07 10° SW 20:49:21 78° NW 20:56:18 10° NNE
Envisat 3.8 20:44:47 10° S 20:49:45 56° W 20:54:46 10° NNW
Cosmos 1378 Rocket 3.5 20:48:56 10° S 20:53:12 67° E 20:57:29 10° NNE
COSMOS 2487 3.7 20:50:45 10° SW 20:54:08 47° WNW 20:57:33 10° N
Cosmos 1674 Rocket 4.1 20:51:01 10° SSW 20:55:26 67° W 20:59:55 10° N
Cosmos 1975 Rocket 3.8 20:53:13 10° SSE 20:57:05 33° E 21:00:58 10° NNE
Okean 3 3.9 20:52:50 10° SSW 20:57:06 69° W 21:01:23 10° N
Okean 1 Rocket 3.0 20:54:56 10° N 20:59:17 73° E 21:03:36 10° SSE
YAOGAN 6 3.1 20:56:53 10° S 21:00:33 62° W 21:04:12 10° NNW
Shenzhou-11 Module 2.8 20:57:44 10° WNW 21:00:38 48° N 21:03:33 10° E
Cosmos 1242 Rocket 3.3 21:02:22 10° N 21:05:48 37° ENE 21:09:09 10° SE
Aureole 2 Rocket 4.4 21:07:18 10° NE 21:08:18 11° ENE 21:09:16 10° E
Thor Agena Rocket 4.0 21:05:42 10° N 21:10:57 69° WNW 21:16:07 10° SSW
BREEZE-M R/B 3.6 21:06:19 10° WSW 21:11:16 52° NNW 21:14:08 10° NE
Cosmos 2084 3.3 21:11:07 10° SSW 21:15:27 69° ESE 21:19:35 10° NE
Atlas Centaur 2 3.0 21:14:52 10° SW 21:17:21 16° SSW 21:19:24 11° SSE
Cosmos 2233 Rocket 4.0 21:13:48 10° S 21:19:56 79° E 21:26:09 10° N
Cosmos 1975 2.8 21:18:07 10° N 21:22:11 86° W 21:26:11 10° S
SJ 16-02 3.4 21:23:09 10° NNE 21:25:44 15° ENE 21:28:17 10° E
Meteor 1-19 Rocket 4.3 21:21:27 10° S 21:27:20 71° E 21:33:13 10° NNE
Resurs 01 Rocket 2.4 21:23:17 10° S 21:27:35 52° W 21:31:53 10° NNW
Cosmos 2360 Rocket 3.3 21:23:17 10° N 21:28:15 31° ENE 21:32:17 14° ESE
Spot 2 Rocket 3.6 21:23:22 10° S 21:28:24 76° WSW 21:33:27 10° NNW
deb Kosmos-1763 4.4 21:27:03 10° SSW 21:30:44 68° WNW 21:34:26 10° NNE
Cosmos 540 Rocket 4.5 21:27:11 13° SSE 21:30:45 26° E 21:34:59 10° NE
Cosmos 1980 Rocket 3.7 21:25:51 10° NW 21:30:54 34° WSW 21:35:56 10° SSW
Cosmos 2219 Rocket 4.4 21:30:11 10° NNE 21:31:34 11° NE 21:32:56 10° ENE
Cosmos 468 Rocket 4.3 21:27:02 10° SSW 21:32:18 73° WNW 21:37:33 10° NNE
ATLAS CENTAUR R/B 3.8 21:30:01 10° WNW 21:33:31 21° WSW 21:37:06 10° SSW
Cosmos 1937 Rocket 3.5 21:29:24 10° NNW 21:34:32 69° ENE 21:38:38 16° SSE
ERS-2 3.8 21:31:16 10° SSW 21:34:34 31° W 21:37:54 10° NW
Cosmos 2298 Rocket 4.3 21:29:51 10° N 21:35:04 55° ENE 21:38:58 17° SE
BREEZE-M DEB (TANK) 2.6 21:32:44 10° WNW 21:35:10 27° SW 21:36:08 19° S
Cosmos 1666 3.0 21:31:36 10° NNW 21:35:28 69° W 21:39:18 10° S
Helios 1B rocket 4.3 21:35:15 10° ENE 21:37:20 14° E 21:37:37 13° E
Cosmos 1763 Rocket 3.5 21:33:08 10° SSW 21:38:26 80° ESE 21:43:44 10° NNE
Meteor 2-9 Rocket 4.2 21:36:37 10° N 21:41:56 63° E 21:46:09 17° SSE
Cosmos 841 Rocket 3.5 21:38:52 10° S 21:44:01 62° ESE 21:49:13 10° NNE
USA 32 4.1 21:42:12 10° N 21:47:24 60° E 21:51:10 18° SSE
Cosmos 1743 3.4 21:44:16 10° NNW 21:47:59 51° W 21:51:39 10° S
MetOp-A 4.1 21:44:35 16° SSE 21:48:51 75° ENE 21:54:14 10° N
SPOT 5 3.8 21:49:27 20° ESE 21:51:30 29° ENE 21:55:24 10° N
Iridium 2 3.9 21:49:41 10° S 21:53:28 69° W 21:57:18 10° N
Cosmos 2333 Rocket 4.3 21:50:48 10° NNE 21:53:56 15° NE 21:57:04 10° E
USA 234 3.5 21:50:24 10° NE 21:56:57 75° NW 22:03:30 10° WSW
Terra 3.6 21:55:07 15° E 21:57:00 18° ENE 22:00:12 10° NNE
COSMOS 2428 4.2 21:52:58 10° N 21:57:26 23° NE 22:00:36 15° E
Centaur D-1A AC-31 2.9 21:57:10 10° WSW 21:59:57 15° SSW 22:00:42 14° S
Cosmos 1513 Rocket 4.4 21:59:24 15° S 22:04:25 66° E 22:10:32 10° NNE
Cosmos 1833 4.1 21:58:45 10° SSW 22:04:28 75° ESE 22:10:10 10° NNE
Meteor 2-4 Rocket 3.7 21:59:32 10° SSW 22:04:57 80° W 22:10:33 10° N
Lacrosse 5 rocket 2.4 22:01:20 10° NNW 22:05:23 38° NE 22:07:25 23° E
Cosmos 2034 Rocket 4.1 22:03:34 20° SSE 22:07:44 56° E 22:13:44 10° NNE
ERS-1 Rocket 2.9 22:07:45 26° SSE 22:10:37 78° ENE 22:15:40 10° N
Cosmos 1464 Rocket 4.0 22:05:11 12° S 22:11:14 84° E 22:17:38 10° N
Abrixas rocket 4.4 22:10:52 10° WNW 22:13:38 26° NNW 22:16:25 10° NE
CSL-04 DEB 4.5 22:12:19 28° S 22:14:26 78° WSW 22:18:33 10° NNW
ISS -0.6 22:13:08 10° NW 22:15:02 14° NNW 22:16:56 10° NNE
Cosmos 1025 Rocket 3.8 22:14:39 31° ESE 22:15:16 32° E 22:19:09 10° NNE
USA 245 3.1 22:16:24 43° SSE 22:17:29 83° ENE 22:21:47 10° N
Cosmos 1356 3.6 22:17:03 27° SSW 22:18:47 69° W 22:22:16 10° N
Cosmos 1515 3.6 22:17:00 30° S 22:18:48 88° WNW 22:22:38 10° N
SPOT 1/Viking Rocket 3.7 22:16:50 31° SE 22:19:06 56° ENE 22:24:08 10° N
ARGOS 3.6 22:15:18 17° S 22:19:18 57° W 22:24:39 10° NNW
Cosmos 2322 3.9 22:15:30 10° NNW 22:21:11 60° ENE 22:23:44 32° SE
Cosmos 2322 Rocket 3.1 22:17:19 10° NW 22:22:33 41° WSW 22:26:19 18° SSW
H-2A R/B 2.2 22:19:42 23° S 22:22:42 64° W 22:27:42 10° NNW
Tiangong 2 1.9 22:20:55 10° WNW 22:23:59 48° N 22:25:10 30° NE
Cosmos 1455 Rocket 3.6 22:20:32 10° NNW 22:24:48 54° W 22:27:13 24° SSW
CENTAUR R/B 2.8 22:19:50 10° SW 22:25:45 68° NW 22:32:35 10° NNE
Cosmos 2237 Rocket 4.4 22:22:57 10° NNE 22:26:05 15° NE 22:29:12 10° E
Cosmos 1340 Rocket 3.9 22:25:14 12° SSW 22:28:42 44° WNW 22:32:38 10° N
SL-16 R/B 3.5 22:26:55 10° NW 22:31:55 32° WSW 22:35:43 15° SSW
Cosmos 1125 Rocket 3.7 22:26:49 10° N 22:31:59 55° ENE 22:33:42 38° ESE
Meteor 1-29 3.9 22:28:54 10° NNE 22:31:30 34° ENE 22:31:30 34° ENE
Shenzhou-11 Module 2.8 22:33:49 10° WNW 22:36:03 45° W 22:36:03 45° W
DMSP B5D2-2 4.1 22:34:55 10° N 22:40:14 79° WNW 22:43:34 23° SSW
Helios 1A 3.0 22:41:57 49° S 22:42:58 72° WSW 22:47:08 10° NNW
Aureole 2 Rocket 3.9 22:40:47 10° NW 22:43:07 23° W 22:43:07 23° W
Cosmos 836 Rocket 4.5 22:43:05 25° SSW 22:46:13 83° WNW 22:51:27 10° NNE
Cosmos 2219 3.5 22:48:54 44° SE 22:49:52 48° ESE 22:55:23 10° NE
Cosmos 2237 4.2 22:45:18 10° NNW 22:51:03 81° WSW 22:52:57 44° SSE
Okean 2 3.5 22:50:55 51° SSW 22:51:51 74° W 22:56:02 10° N
Nimbus 7 Rocket 4.4 22:53:50 10° NNE 22:59:41 63° ESE 23:01:13 47° SSE
CZ-4C R/B 3.1 22:52:34 10° NNW 22:59:45 64° NE 23:03:19 35° ESE
Cosmos 1356 Rocket 3.7 23:03:26 55° SW 23:04:11 68° W 23:08:29 10° N
SJ 16-02 1.8 23:00:21 10° NNW 23:04:39 51° WSW 23:05:18 47° SW
Cosmos 1544 3.6 23:02:08 10° N 23:05:13 53° NNE 23:05:13 53° NNE
Okean 1-7 Rocket 3.6 23:05:55 67° ESE 23:06:00 67° E 23:10:31 10° NNE
COSMOS 2455 4.0 23:07:46 26° E 23:07:46 26° E 23:11:40 10° NE
Cosmos 2360 Rocket 3.2 23:07:07 10° NW 23:12:16 37° WSW 23:14:04 30° SW
Helios 1B rocket 3.3 23:08:53 10° N 23:12:51 46° WNW 23:13:58 36° WSW
Cosmos 2228 4.0 23:09:27 10° N 23:12:59 34° ENE 23:12:59 34° ENE
CZ-2C R/B 2.8 23:08:48 10° NNE 23:14:19 54° E 23:14:47 52° ESE
Cosmos 2333 4.1 23:09:08 10° NNW 23:14:50 84° WSW 23:15:58 59° S
Landsat 7 4.4 23:14:40 43° SW 23:15:37 49° W 23:20:14 10° NNW
Cosmos 2219 Rocket 2.2 23:11:03 10° NNW 23:16:37 67° ENE 23:17:36 56° ESE
Cosmos 1726 Rocket 3.9 23:13:17 10° N 23:17:20 52° ENE 23:17:20 52° ENE
Cosmos 1092 Rocket 4.0 23:12:26 10° N 23:18:48 80° W 23:20:43 48° S
IGS 5A 3.9 23:21:30 51° WSW 23:21:32 51° W 23:25:36 10° NNW
SPOT 5 4.3 23:28:41 23° WSW 23:29:33 25° W 23:33:16 10° NW
Cosmos 1842 4.5 23:31:21 35° NE 23:31:21 35° NE 23:33:52 10° NNE
Cosmos 1805 4.3 23:28:10 10° N 23:31:01 39° NE 23:31:01 39° NE
Cosmos 2058 Rocket 3.6 23:27:35 10° N 23:31:33 51° NE 23:31:33 51° NE
Iridium 4 Rocket 4.3 23:33:13 41° E 23:33:29 41° E 23:38:57 10° NNE
Terra 2.3 23:33:59 47° WSW 23:34:22 48° W 23:38:59 10° NNW
Cosmos 2333 Rocket 2.0 23:33:18 10° NNW 23:39:02 89° ENE 23:39:38 73° SSE
COSMOS 2428 3.0 23:36:29 10° NNW 23:42:00 53° WSW 23:42:36 51° SW
CZ-2C R/B 3.3 23:41:20 57° SW 23:42:00 61° W 23:47:32 10° NNW
SL-16 R/B 3.8 23:38:40 10° N 23:43:09 23° NE 23:44:52 20° E
Lacrosse 5 rocket 3.2 23:40:54 10° WNW 23:43:05 22° W 23:43:05 22° W
NOSS 0 Rocket 3.8 23:39:34 10° NNW 23:45:51 80° ENE 23:46:47 65° SE
ALOS 2 4.3 23:46:19 24° ENE 23:46:19 24° ENE 23:49:30 10° NNE
Cosmos 2026 Rocket 3.9 23:42:13 10° N 23:48:21 74° W 23:49:21 61° SSW
Cosmos 2279 Rocket 3.8 23:50:11 66° S 23:51:09 89° E 23:57:24 10° N
Cosmos 1655 Rocket 3.9 23:45:47 10° N 23:52:12 78° E 23:53:03 66° SE
ISS -0.5 23:51:27 10° NNW 23:52:37 11° N 23:53:48 10° NNE
Cosmos 1980 3.7 23:47:28 10° NNW 23:53:07 70° ENE 23:53:29 67° E
Cosmos 1953 4.0 23:49:40 10° NNE 23:52:04 27° NE 23:52:04 27° NE
